,

(GMT )
Munich

Weather History for EDDM - October, 2017

Change the Weather History Date:

Thursday, October 12, 2017

  Actual Average Record
Temperature  
Mean Temperature 52 °F -  
Max Temperature 64 °F 56 °F 68 °F (2001)
Min Temperature 39 °F 40 °F 32 °F (2015)
Degree Days  
Heating Degree Days 14    
Growing Degree Days 2 (Base 50)    
Moisture  
Dew Point 46 °F    
Average Humidity 80    
Maximum Humidity 100    
Minimum Humidity 59    
Precipitation  
Precipitation 0.00 in - - ()
Sea Level Pressure  
Sea Level Pressure 30.23 in    
Wind  
Wind Speed 6 mph ()    
Max Wind Speed 20 mph    
Max Gust Speed 26 mph    
Visibility 6.2 miles    
Events Fog    
Averages and records for this station are not official NWS values.
T = Trace of Precipitation, MM = Missing Value Source: Averaged Metar Reports

Daily Weather History Graph

Daily Weather History Graph

Search for Another Location

Airport or City:

Trip Planner

Search our weather history database for the weather conditions in past years. The results will help you decide how hot, cold, wet, or windy it might be!

Date:

Astronomy

Oct. 12, 2017 Rise Set
Actual Time 7:28 AM CEST 6:30 PM CEST
Civil Twilight 6:56 AM CEST 7:01 PM CEST
Nautical Twilight 6:20 AM CEST 7:37 PM CEST
Astronomical Twilight 5:44 AM CEST 8:13 PM CEST
Moon No Moon Rise 2:40 PM CEST (10/12)
Length of Visible Light 12h 04m
Length of Day
11h 01m
Waning Gibbous, 51% of the Moon is Illuminated
Oct 12
Waning Gibbous
Oct 12
Last Quarter
Oct 19
New
Oct 28
First Quarter
Nov 4
Full

Hourly Weather History & Observations

Time (CEST) Temp. Windchill Dew Point Humidity Pressure Visibility Wind Dir Wind Speed Gust Speed Precip Events Conditions
12:20 AM 44.6 °F 43.1 °F 42.8 °F 93% 30.15 in - SW 3.5 mph - N/A   Clear
12:50 AM 42.8 °F 41.1 °F 41.0 °F 93% 30.15 in - WSW 3.5 mph - N/A   Clear
1:20 AM 42.8 °F 41.1 °F 41.0 °F 93% 30.15 in - SW 3.5 mph - N/A   Clear
1:50 AM 41.0 °F 39.0 °F 39.2 °F 93% 30.15 in 6.2 mi SW 3.5 mph - N/A Fog Shallow Fog
2:20 AM 41.0 °F 37.1 °F 41.0 °F 100% 30.15 in 6.2 mi SSW 5.8 mph - N/A Fog Shallow Fog
2:50 AM 42.8 °F 40.1 °F 41.0 °F 93% 30.15 in - West 4.6 mph - N/A   Clear
3:20 AM 42.8 °F 41.1 °F 42.8 °F 100% 30.15 in - WSW 3.5 mph - N/A   Clear
3:50 AM 41.0 °F 38.0 °F 39.2 °F 93% 30.15 in 6.2 mi SW 4.6 mph - N/A Fog Shallow Fog
4:20 AM 41.0 °F 37.1 °F 39.2 °F 93% 30.15 in 6.2 mi SW 5.8 mph - N/A Fog Shallow Fog
4:50 AM 39.2 °F - 37.4 °F 93% 30.15 in - SSW 2.3 mph - N/A   Clear
5:20 AM 42.8 °F - 41.0 °F 93% 30.15 in - West 2.3 mph - N/A   Clear
5:50 AM 41.0 °F 39.0 °F 39.2 °F 93% 30.15 in - SSW 3.5 mph - N/A   Clear
6:20 AM 41.0 °F 39.0 °F 39.2 °F 93% 30.15 in - SSW 3.5 mph - N/A   Clear
6:50 AM 41.0 °F - 39.2 °F 93% 30.15 in - Variable 1.2 mph - N/A   Clear
7:20 AM 42.8 °F - 41.0 °F 93% 30.15 in - Variable 1.2 mph - N/A   Clear
7:50 AM 42.8 °F - 42.8 °F 100% 30.15 in - Variable 1.2 mph - N/A   Clear
8:20 AM 42.8 °F - 41.0 °F 93% 30.18 in - Variable 1.2 mph - N/A   Clear
8:50 AM 46.4 °F 45.2 °F 44.6 °F 93% 30.18 in - SSW 3.5 mph - N/A   Clear
9:20 AM 51.8 °F - 46.4 °F 82% 30.18 in - SW 5.8 mph - N/A   Clear
9:50 AM 55.4 °F - 46.4 °F 72% 30.21 in - WSW 8.1 mph - N/A   Unknown
10:20 AM 60.8 °F - 50.0 °F 68% 30.21 in - WSW 9.2 mph - N/A   Clear
10:50 AM 60.8 °F - 48.2 °F 63% 30.21 in - WSW 11.5 mph - N/A   Clear
11:20 AM 64.4 °F - 50.0 °F 59% 30.21 in - WSW 19.6 mph - N/A   Clear
11:50 AM 64.4 °F - 50.0 °F 59% 30.24 in 6.2 mi West 15.0 mph - N/A   Mostly Cloudy
12:20 PM 64.4 °F - 50.0 °F 59% 30.24 in 6.2 mi West 19.6 mph - N/A   Mostly Cloudy
12:50 PM 64.4 °F - 50.0 °F 59% 30.24 in 6.2 mi West 15.0 mph 26.5 mph N/A   Mostly Cloudy
1:20 PM 62.6 °F - 50.0 °F 63% 30.24 in 6.2 mi West 12.7 mph - N/A   Mostly Cloudy
1:50 PM 60.8 °F - 50.0 °F 68% 30.27 in 6.2 mi West 11.5 mph - N/A   Scattered Clouds
2:20 PM 62.6 °F - 50.0 °F 63% 30.27 in 6.2 mi West 13.8 mph - N/A   Scattered Clouds
2:50 PM 62.6 °F - 50.0 °F 63% 30.27 in 6.2 mi WSW 19.6 mph - N/A   Mostly Cloudy
3:20 PM 62.6 °F - 50.0 °F 63% 30.27 in 6.2 mi WSW 18.4 mph - N/A   Mostly Cloudy
3:50 PM 62.6 °F - 50.0 °F 63% 30.27 in 6.2 mi WSW 15.0 mph - N/A   Mostly Cloudy
4:20 PM 62.6 °F - 50.0 °F 63% 30.27 in 6.2 mi WSW 17.3 mph - N/A   Mostly Cloudy
4:50 PM 62.6 °F - 50.0 °F 63% 30.27 in 6.2 mi WSW 15.0 mph - N/A   Scattered Clouds
5:20 PM 62.6 °F - 50.0 °F 63% 30.27 in 6.2 mi West 15.0 mph - N/A   Scattered Clouds
5:50 PM 60.8 °F - 50.0 °F 68% 30.27 in 6.2 mi West 13.8 mph - N/A   Mostly Cloudy
6:20 PM 59.0 °F - 50.0 °F 72% 30.27 in 6.2 mi WSW 10.4 mph - N/A   Scattered Clouds
6:50 PM 59.0 °F - 50.0 °F 72% 30.27 in - West 9.2 mph - N/A   Clear
7:20 PM 57.2 °F - 50.0 °F 77% 30.30 in - West 5.8 mph - N/A   Clear
7:50 PM 55.4 °F - 50.0 °F 82% 30.30 in - West 5.8 mph - N/A   Clear
8:20 PM 55.4 °F - 50.0 °F 82% 30.30 in - West 4.6 mph - N/A   Clear
8:50 PM 55.4 °F - 50.0 °F 82% 30.30 in - NNW 3.5 mph - N/A   Clear
9:20 PM 55.4 °F - 50.0 °F 82% 30.33 in - West 2.3 mph - N/A   Clear
9:50 PM 53.6 °F - 50.0 °F 88% 30.33 in - SW 3.5 mph - N/A   Clear
10:20 PM 51.8 °F - 48.2 °F 88% 30.33 in - WSW 5.8 mph - N/A   Clear
10:50 PM 51.8 °F - 48.2 °F 88% 30.33 in - WSW 4.6 mph - N/A   Clear
11:20 PM 51.8 °F - 48.2 °F 88% 30.36 in - WSW 4.6 mph - N/A   Clear
11:50 PM 51.8 °F - 50.0 °F 94% 30.36 in 6.2 mi WSW 5.8 mph - N/A   Mostly Cloudy